This is the latest recevied weather packets stored in our database for station/object 4S6DRJ-13. If no packets are shown the sender has not sent any weather packets the latest 10 day(s).
| Time | Temp. | Humidity | Pressure | Rain* | Wind** | Luminosity | Snow |
|---|---|---|---|---|---|---|---|
| 1788323109 | 31.11° C | 71% | 1010.7 hPa | 0 mm | 2.24 m/s, 280° | 991 W/m² | - |
| 1788323048 | 30.56° C | 73% | 1010.6 hPa | 0 mm | 0.45 m/s, 178° | 957 W/m² | - |
| 1788322987 | 30.56° C | 72% | 1010.8 hPa | 0 mm | 1.34 m/s, 82° | 1100 W/m² | - |
| 1788322926 | 30.56° C | 72% | 1010.7 hPa | 0 mm | 2.68 m/s, 207° | 985 W/m² | - |
| 1788322865 | 30.56° C | 72% | 1010.8 hPa | 0 mm | 0.45 m/s, 188° | 996 W/m² | - |
| 1788322805 | 30.56° C | 72% | 1010.9 hPa | 0 mm | 2.24 m/s, 258° | 1100 W/m² | - |
| 1788322743 | 30.56° C | 72% | 1010.8 hPa | 0 mm | 0.89 m/s, 242° | 1102 W/m² | - |
| 1788322682 | 30.56° C | 73% | 1010.8 hPa | 0 mm | 0.89 m/s, 229° | 277 W/m² | - |
| 1788322621 | 30.56° C | 72% | 1010.8 hPa | 0 mm | 0.89 m/s, 286° | 1110 W/m² | - |
| 1788322560 | 30.56° C | 73% | 1010.7 hPa | 0 mm | 1.79 m/s, 245° | 1106 W/m² | - |
| 1788322499 | 30.56° C | 72% | 1010.8 hPa | 0 mm | 0.89 m/s, 275° | 380 W/m² | - |
| 1788322438 | 30.56° C | 72% | 1010.7 hPa | 0 mm | 1.79 m/s, 254° | 654 W/m² | - |
| 1788322377 | 30.56° C | 73% | 1010.8 hPa | 0 mm | 1.79 m/s, 249° | 291 W/m² | - |
| 1788322317 | 30.56° C | 74% | 1010.8 hPa | 0 mm | 1.79 m/s, 148° | 872 W/m² | - |
| 1788322255 | 30.56° C | 74% | 1011 hPa | 0 mm | 1.79 m/s, 200° | 1104 W/m² | - |
| 1788322194 | 30.56° C | 75% | 1010.9 hPa | 0 mm | 0.89 m/s, 293° | 246 W/m² | - |
| 1788322133 | 30.56° C | 75% | 1010.7 hPa | 0 mm | 0.89 m/s, 159° | 427 W/m² | - |
| 1788322072 | 30.56° C | 74% | 1010.8 hPa | 0 mm | 2.68 m/s, 232° | 768 W/m² | - |
| 1788322011 | 30.56° C | 74% | 1010.7 hPa | 0 mm | 1.79 m/s, 1° | 1104 W/m² | - |
| 1788321950 | 30.56° C | 74% | 1010.8 hPa | 0 mm | 2.68 m/s, 178° | 232 W/m² | - |
| 1788321890 | 30.56° C | 75% | 1010.8 hPa | 0 mm | 0.89 m/s, 198° | 681 W/m² | - |
| 1788321828 | 30.56° C | 75% | 1010.8 hPa | 0 mm | 1.34 m/s, 216° | 1104 W/m² | - |
| 1788321767 | 30.56° C | 74% | 1010.8 hPa | 0 mm | 1.34 m/s, 293° | 996 W/m² | - |
| 1788321706 | 30.56° C | 74% | 1010.9 hPa | 0 mm | 1.34 m/s, 212° | 961 W/m² | - |
| 1788321645 | 30.56° C | 73% | 1010.7 hPa | 0 mm | 1.34 m/s, 239° | 980 W/m² | - |
* Rain latest hour (hover to see other rain measurements)
** Current wind speed in m/s (hover to see current wind gust speed)